Terminal Aerodrome Forecast
Issued by NWS

Home | Current Version | Previous Version | Text Only | Print | Product List | Glossary On
Versions: 1 2 3 4 5 6 7 8 9 10 11 12 13 14 15 16 17 18 19 20 21 22 23 24 25 26 27
000
FTUS42 KILM 181120
TAFCRE
TAF
KCRE 181120Z 1812/1912 00000KT 3SM -SHRA BR SCT004 BKN025 BKN070
      TEMPO 1812/1814 1SM -SHRA BR BKN004
     FM181400 06005KT 5SM -SHRA BR SCT010 BKN020
     FM181500 10007KT P6SM VCSH SCT015 BKN040
     FM190200 05003KT 5SM BR BKN100=

USA.gov is the U.S. government's official web portal to all federal, state and local government web resources and services.